N150RC EGPH-EDDN

Flight info

Callsign N150RC
Flight time 2h 15m
Altitude 43000
Route GOSAM DCT LUSIV L612 OBUNI UL612 CROFT Y70 GOLES UL975 LIBSO L46 NALAX L602 HMM T281 BIGGE L604 ALIBU DCT TESDU DCT BOREP DCT DODAS
Aircraft C25C/M-SDE2E3FGHRWXY/LB1

Departure

Time 2026-04-20 18:20
Airport Edinburgh Airport (EGPH)

Arrival

Time 2026-04-20 20:36
Airport Nuremberg Airport (EDDN)
Time Latitude Longitude Altitude Speed Heading
2026-04-20 17:49 55.94769 -3.34546 106 ft 0 kts 150°
2026-04-20 18:06 55.94771 -3.34548 106 ft 3 kts 150°
2026-04-20 18:06 55.94787 -3.34564 106 ft 3 kts 150°
2026-04-20 18:06 55.94802 -3.34580 106 ft 3 kts 150°
2026-04-20 18:06 55.94815 -3.34584 106 ft 0 kts 198°
2026-04-20 18:10 55.94815 -3.34585 106 ft 1 kts 202°
2026-04-20 18:10 55.94801 -3.34623 106 ft 10 kts 240°
2026-04-20 18:10 55.94743 -3.34805 106 ft 22 kts 241°
2026-04-20 18:10 55.94675 -3.35023 106 ft 16 kts 244°
2026-04-20 18:11 55.94700 -3.35163 106 ft 12 kts 324°
2026-04-20 18:11 55.94753 -3.35268 106 ft 13 kts 299°
2026-04-20 18:11 55.94800 -3.35425 106 ft 15 kts 298°
2026-04-20 18:11 55.94854 -3.35599 106 ft 17 kts 299°
2026-04-20 18:12 55.94910 -3.35782 106 ft 17 kts 297°
2026-04-20 18:12 55.94997 -3.35852 106 ft 14 kts 31°
2026-04-20 18:12 55.95069 -3.35911 106 ft 13 kts 300°
2026-04-20 18:12 55.95107 -3.36063 106 ft 13 kts 289°
2026-04-20 18:13 55.95136 -3.36223 106 ft 14 kts 286°
2026-04-20 18:13 55.95105 -3.36372 106 ft 13 kts 239°
2026-04-20 18:13 55.95057 -3.36516 106 ft 14 kts 239°
2026-04-20 18:13 55.95008 -3.36660 106 ft 14 kts 238°
2026-04-20 18:14 55.94959 -3.36803 106 ft 13 kts 239°
2026-04-20 18:14 55.94911 -3.36946 106 ft 13 kts 239°
2026-04-20 18:14 55.94862 -3.37089 106 ft 13 kts 239°
2026-04-20 18:14 55.94814 -3.37231 106 ft 13 kts 238°
2026-04-20 18:15 55.94767 -3.37371 106 ft 13 kts 239°
2026-04-20 18:15 55.94719 -3.37510 106 ft 14 kts 238°
2026-04-20 18:15 55.94666 -3.37667 107 ft 15 kts 239°
2026-04-20 18:15 55.94609 -3.37839 107 ft 17 kts 239°
2026-04-20 18:16 55.94542 -3.38036 106 ft 20 kts 239°
2026-04-20 18:16 55.94466 -3.38259 105 ft 21 kts 238°
2026-04-20 18:16 55.94392 -3.38474 106 ft 20 kts 239°
2026-04-20 18:16 55.94327 -3.38665 111 ft 17 kts 239°
2026-04-20 18:17 55.94279 -3.38823 111 ft 11 kts 265°
2026-04-20 18:17 55.94313 -3.38897 111 ft 7 kts 332°
2026-04-20 18:17 55.94319 -3.38902 111 ft 0 kts 333°
2026-04-20 18:18 55.94320 -3.38904 111 ft 2 kts 333°
2026-04-20 18:19 55.94369 -3.38953 109 ft 13 kts 329°
2026-04-20 18:19 55.94426 -3.38947 109 ft 0 kts 62°
2026-04-20 18:19 55.94534 -3.38625 106 ft 80 kts 59°
2026-04-20 18:20 55.95003 -3.37257 130 ft 171 kts 58°
2026-04-20 18:20 55.95693 -3.35268 366 ft 200 kts 58°
2026-04-20 18:20 55.96531 -3.33157 734 ft 216 kts 45°
2026-04-20 18:20 55.97726 -3.31703 1257 ft 202 kts 27°
2026-04-20 18:21 55.98952 -3.30438 1380 ft 212 kts 38°
2026-04-20 18:21 56.00148 -3.28804 1326 ft 223 kts 22°
2026-04-20 18:21 56.01773 -3.28765 1063 ft 255 kts 341°
2026-04-20 18:21 56.03198 -3.30613 831 ft 252 kts 306°
2026-04-20 18:22 56.03700 -3.33491 657 ft 240 kts 272°
2026-04-20 18:22 56.03628 -3.36337 752 ft 217 kts 257°
2026-04-20 18:22 56.03061 -3.38672 898 ft 196 kts 241°
2026-04-20 18:22 56.02410 -3.40737 1050 ft 183 kts 242°
2026-04-20 18:23 56.01943 -3.42871 1102 ft 191 kts 258°
2026-04-20 18:23 56.01767 -3.45204 1178 ft 194 kts 263°
2026-04-20 18:23 56.01428 -3.47603 1231 ft 196 kts 252°
2026-04-20 18:23 56.01047 -3.49924 1362 ft 202 kts 255°
2026-04-20 18:24 56.00672 -3.52435 1477 ft 215 kts 256°
2026-04-20 18:24 56.00302 -3.55060 1719 ft 219 kts 256°
2026-04-20 18:24 55.99923 -3.57694 2057 ft 218 kts 256°
2026-04-20 18:24 55.99543 -3.60319 2395 ft 218 kts 255°
2026-04-20 18:25 55.99161 -3.62928 2738 ft 217 kts 255°
2026-04-20 18:25 55.98778 -3.65525 3078 ft 216 kts 255°
2026-04-20 18:25 55.98397 -3.68111 3418 ft 215 kts 256°
2026-04-20 18:25 55.98019 -3.70686 3749 ft 214 kts 255°
2026-04-20 18:26 55.97642 -3.73252 4085 ft 213 kts 255°
2026-04-20 18:26 55.97263 -3.75807 4405 ft 213 kts 256°
2026-04-20 18:26 55.96885 -3.78361 4731 ft 212 kts 255°
2026-04-20 18:26 55.96511 -3.80902 5042 ft 212 kts 255°
2026-04-20 18:27 55.96133 -3.83438 5353 ft 211 kts 255°
2026-04-20 18:27 55.95753 -3.85994 5555 ft 217 kts 255°
2026-04-20 18:27 55.95358 -3.88653 5615 ft 227 kts 255°
2026-04-20 18:27 55.94943 -3.91437 5637 ft 237 kts 255°
2026-04-20 18:28 55.94512 -3.94329 5644 ft 246 kts 255°
2026-04-20 18:28 55.94214 -3.96296 5643 ft 250 kts 255°
2026-04-20 18:28 55.93306 -4.00177 5641 ft 258 kts 242°
2026-04-20 18:28 55.92311 -4.02819 5643 ft 262 kts 231°
2026-04-20 18:29 55.91047 -4.05185 5645 ft 265 kts 221°
2026-04-20 18:29 55.89553 -4.07139 5646 ft 268 kts 214°
2026-04-20 18:29 55.88010 -4.09022 5646 ft 270 kts 215°
2026-04-20 18:29 55.86977 -4.10272 5645 ft 271 kts 214°
2026-04-20 18:30 55.85414 -4.12157 5645 ft 272 kts 214°
2026-04-20 18:30 55.83845 -4.14048 5643 ft 273 kts 214°
2026-04-20 18:30 55.82273 -4.15953 5644 ft 274 kts 214°
2026-04-20 18:30 55.80694 -4.17849 5644 ft 274 kts 214°
2026-04-20 18:31 55.79104 -4.19720 5643 ft 275 kts 210°
2026-04-20 18:31 55.77273 -4.20643 5637 ft 275 kts 190°
2026-04-20 18:31 55.75396 -4.21321 5638 ft 276 kts 193°
2026-04-20 18:31 55.73515 -4.22004 5640 ft 276 kts 191°
2026-04-20 18:32 55.71631 -4.22683 5642 ft 276 kts 192°
2026-04-20 18:32 55.69747 -4.23355 5642 ft 276 kts 192°
2026-04-20 18:32 55.67861 -4.24022 5643 ft 277 kts 189°
2026-04-20 18:32 55.65967 -4.23626 5628 ft 278 kts 159°
2026-04-20 18:33 55.64232 -4.22118 5631 ft 278 kts 153°
2026-04-20 18:33 55.62544 -4.20441 5632 ft 278 kts 149°
2026-04-20 18:33 55.62425 -4.20315 5633 ft 278 kts 149°
2026-04-20 18:33 55.61022 -4.18864 5635 ft 278 kts 151°
2026-04-20 18:34 55.59331 -4.17202 5637 ft 278 kts 151°
2026-04-20 18:34 55.57631 -4.15563 5729 ft 275 kts 152°
2026-04-20 18:34 55.55986 -4.13954 5977 ft 267 kts 151°
2026-04-20 18:34 55.54382 -4.12392 6218 ft 260 kts 151°
2026-04-20 18:35 55.52816 -4.10854 6459 ft 255 kts 151°
2026-04-20 18:35 55.51277 -4.09362 6704 ft 250 kts 151°
2026-04-20 18:35 55.49766 -4.07887 6946 ft 246 kts 152°
2026-04-20 18:35 55.48275 -4.06439 7187 ft 243 kts 151°
2026-04-20 18:36 55.46800 -4.05006 7432 ft 241 kts 152°
2026-04-20 18:36 55.45343 -4.03588 7671 ft 239 kts 151°
2026-04-20 18:36 55.43903 -4.02196 8037 ft 230 kts 152°
2026-04-20 18:36 55.42539 -4.00869 8520 ft 218 kts 152°
2026-04-20 18:37 55.41240 -3.99611 9000 ft 208 kts 151°
2026-04-20 18:37 55.40003 -3.98417 9474 ft 198 kts 152°
2026-04-20 18:37 55.38828 -3.97276 9941 ft 188 kts 152°
2026-04-20 18:37 55.37941 -3.96424 10310 ft 180 kts 152°
2026-04-20 18:38 55.37424 -3.95918 10535 ft 175 kts 151°
2026-04-20 18:38 55.36374 -3.94911 10998 ft 174 kts 152°
2026-04-20 18:38 55.35231 -3.93803 11501 ft 203 kts 152°
2026-04-20 18:38 55.33907 -3.92529 12022 ft 231 kts 151°
2026-04-20 18:39 55.32421 -3.91099 12563 ft 256 kts 152°
2026-04-20 18:39 55.30788 -3.89521 13111 ft 279 kts 152°
2026-04-20 18:39 55.29026 -3.87830 13658 ft 299 kts 151°
2026-04-20 18:39 55.27146 -3.86020 14205 ft 317 kts 152°
2026-04-20 18:40 55.25166 -3.84121 14746 ft 332 kts 151°
2026-04-20 18:40 55.23122 -3.82162 15275 ft 345 kts 152°
2026-04-20 18:40 55.20949 -3.80077 15810 ft 357 kts 151°
2026-04-20 18:40 55.18738 -3.77967 16338 ft 367 kts 152°
2026-04-20 18:41 55.16500 -3.75821 16851 ft 376 kts 152°
2026-04-20 18:41 55.14216 -3.73647 17368 ft 367 kts 152°
2026-04-20 18:41 55.12020 -3.71548 17874 ft 351 kts 152°
2026-04-20 18:41 55.09932 -3.69567 18366 ft 338 kts 152°
2026-04-20 18:42 55.07901 -3.67630 18857 ft 327 kts 152°
2026-04-20 18:42 55.05928 -3.65760 19346 ft 318 kts 152°
2026-04-20 18:42 55.04008 -3.63937 19831 ft 311 kts 152°
2026-04-20 18:42 55.02105 -3.62133 20320 ft 312 kts 152°
2026-04-20 18:43 55.00191 -3.60325 20804 ft 314 kts 152°
2026-04-20 18:43 54.98271 -3.58504 21301 ft 315 kts 152°
2026-04-20 18:43 54.96345 -3.56691 21794 ft 315 kts 152°
2026-04-20 18:43 54.94415 -3.54869 22289 ft 316 kts 152°
2026-04-20 18:44 54.92464 -3.53034 22785 ft 320 kts 152°
2026-04-20 18:44 54.90495 -3.51182 23281 ft 324 kts 152°
2026-04-20 18:44 54.88508 -3.49312 23781 ft 326 kts 152°
2026-04-20 18:44 54.86527 -3.47458 24273 ft 328 kts 152°
2026-04-20 18:45 54.84516 -3.45570 24773 ft 329 kts 152°
2026-04-20 18:45 54.82496 -3.43680 25269 ft 330 kts 152°
2026-04-20 18:45 54.80478 -3.41794 25768 ft 330 kts 152°
2026-04-20 18:45 54.78461 -3.39906 26265 ft 329 kts 152°
2026-04-20 18:46 54.76447 -3.38031 26760 ft 328 kts 152°
2026-04-20 18:46 54.74438 -3.36156 27255 ft 327 kts 152°
2026-04-20 18:46 54.72437 -3.34300 27748 ft 326 kts 153°
2026-04-20 18:46 54.70362 -3.32750 28239 ft 325 kts 157°
2026-04-20 18:47 54.68291 -3.31159 28733 ft 326 kts 156°
2026-04-20 18:47 54.66241 -3.29571 29223 ft 328 kts 156°
2026-04-20 18:47 54.64238 -3.28065 29699 ft 328 kts 157°
2026-04-20 18:47 54.62163 -3.26526 30183 ft 330 kts 157°
2026-04-20 18:48 54.60040 -3.24941 30680 ft 334 kts 157°
2026-04-20 18:48 54.57901 -3.23332 31179 ft 337 kts 157°
2026-04-20 18:48 54.55744 -3.21716 31676 ft 339 kts 157°
2026-04-20 18:48 54.53577 -3.20101 32173 ft 340 kts 157°
2026-04-20 18:49 54.51400 -3.18477 32670 ft 341 kts 157°
2026-04-20 18:49 54.49219 -3.16851 33172 ft 342 kts 157°
2026-04-20 18:49 54.47028 -3.15222 33559 ft 346 kts 157°
2026-04-20 18:49 54.44821 -3.13581 34045 ft 347 kts 157°
2026-04-20 18:50 54.42596 -3.11929 34525 ft 350 kts 157°
2026-04-20 18:50 54.40351 -3.10267 35004 ft 353 kts 157°
2026-04-20 18:50 54.38085 -3.08587 35473 ft 356 kts 157°
2026-04-20 18:50 54.35809 -3.06905 35948 ft 357 kts 157°
2026-04-20 18:51 54.33522 -3.05217 36423 ft 358 kts 157°
2026-04-20 18:51 54.31242 -3.03532 36891 ft 358 kts 157°
2026-04-20 18:51 54.28952 -3.01846 37361 ft 358 kts 157°
2026-04-20 18:51 54.26659 -3.00160 37753 ft 360 kts 157°
2026-04-20 18:52 54.24357 -2.98466 38122 ft 362 kts 157°
2026-04-20 18:52 54.22033 -2.96760 38493 ft 364 kts 157°
2026-04-20 18:52 54.19703 -2.95053 38848 ft 366 kts 157°
2026-04-20 18:52 54.17334 -2.93317 38966 ft 375 kts 157°
2026-04-20 18:53 54.14902 -2.91538 38999 ft 386 kts 157°
2026-04-20 18:53 54.12403 -2.89714 39011 ft 396 kts 157°
2026-04-20 18:53 54.07227 -2.85940 39014 ft 413 kts 157°
2026-04-20 18:54 54.01842 -2.82024 39009 ft 428 kts 157°
2026-04-20 18:54 53.96293 -2.77999 39016 ft 439 kts 157°
2026-04-20 18:55 53.90615 -2.73892 39009 ft 448 kts 157°
2026-04-20 18:55 53.84935 -2.69801 39006 ft 443 kts 157°
2026-04-20 18:56 53.79284 -2.65740 39001 ft 439 kts 157°
2026-04-20 18:56 53.73884 -2.61060 39005 ft 436 kts 144°
2026-04-20 18:57 53.69694 -2.53750 38994 ft 435 kts 124°
2026-04-20 18:57 53.67255 -2.44492 38990 ft 433 kts 104°
2026-04-20 18:58 53.66857 -2.34426 38990 ft 432 kts 83°
2026-04-20 18:58 53.68544 -2.24764 38991 ft 431 kts 63°
2026-04-20 18:59 53.71673 -2.16177 38990 ft 430 kts 63°
2026-04-20 18:59 53.73374 -2.06557 38992 ft 429 kts 83°
2026-04-20 19:00 53.73446 -2.01525 38992 ft 429 kts 94°
2026-04-20 19:00 53.73051 -1.96974 38993 ft 429 kts 102°
2026-04-20 19:00 53.71395 -1.87315 38998 ft 428 kts 107°
2026-04-20 19:01 53.70099 -1.77517 39001 ft 428 kts 100°
2026-04-20 19:01 53.68841 -1.67708 39000 ft 427 kts 104°
2026-04-20 19:02 53.67513 -1.57939 38996 ft 427 kts 102°
2026-04-20 19:02 53.66229 -1.48170 39005 ft 427 kts 103°
2026-04-20 19:03 53.64905 -1.38417 39005 ft 427 kts 103°
2026-04-20 19:03 53.63601 -1.28741 38995 ft 426 kts 103°
2026-04-20 19:04 53.62270 -1.19003 39003 ft 426 kts 103°
2026-04-20 19:04 53.60944 -1.09281 39005 ft 426 kts 102°
2026-04-20 19:05 53.60226 -0.99381 39004 ft 426 kts 96°
2026-04-20 19:05 53.59549 -0.89478 39005 ft 426 kts 96°
2026-04-20 19:06 53.58886 -0.79565 39005 ft 426 kts 96°
2026-04-20 19:06 53.58203 -0.69682 39005 ft 426 kts 97°
2026-04-20 19:07 53.57518 -0.59795 39005 ft 426 kts 97°
2026-04-20 19:07 53.56822 -0.49908 39005 ft 426 kts 97°
2026-04-20 19:08 53.55765 -0.35087 39005 ft 426 kts 97°
2026-04-20 19:09 53.55049 -0.25199 39005 ft 426 kts 97°
2026-04-20 19:09 53.54325 -0.15295 39006 ft 428 kts 97°
2026-04-20 19:10 53.53587 -0.05354 39009 ft 430 kts 97°
2026-04-20 19:10 53.52838 0.04624 39011 ft 431 kts 97°
2026-04-20 19:11 53.51778 0.14537 39007 ft 432 kts 103°
2026-04-20 19:11 53.50470 0.24402 39004 ft 433 kts 102°
2026-04-20 19:12 53.49135 0.34263 39012 ft 434 kts 103°
2026-04-20 19:12 53.47801 0.44075 39008 ft 434 kts 103°
2026-04-20 19:13 53.46448 0.53957 39007 ft 435 kts 103°
2026-04-20 19:13 53.45085 0.63840 39007 ft 435 kts 103°
2026-04-20 19:14 53.43716 0.73718 39009 ft 435 kts 103°
2026-04-20 19:14 53.42335 0.83610 39009 ft 435 kts 103°
2026-04-20 19:15 53.40945 0.93489 39012 ft 435 kts 103°
2026-04-20 19:15 53.39546 1.03373 39011 ft 436 kts 103°
2026-04-20 19:16 53.38141 1.13245 39006 ft 436 kts 103°
2026-04-20 19:16 53.36728 1.23108 39011 ft 436 kts 103°
2026-04-20 19:17 53.35305 1.32971 39004 ft 436 kts 103°
2026-04-20 19:17 53.34116 1.41165 39011 ft 436 kts 104°
2026-04-20 19:18 53.32680 1.51017 39011 ft 436 kts 103°
2026-04-20 19:18 53.31501 1.60957 39011 ft 436 kts 101°
2026-04-20 19:19 53.30307 1.70899 39011 ft 436 kts 101°
2026-04-20 19:19 53.29116 1.80833 39009 ft 436 kts 101°
2026-04-20 19:20 53.27912 1.90760 39011 ft 436 kts 101°
2026-04-20 19:20 53.26702 2.00684 39011 ft 436 kts 101°
2026-04-20 19:21 53.25485 2.10602 39011 ft 436 kts 102°
2026-04-20 19:21 53.24258 2.20519 39011 ft 436 kts 102°
2026-04-20 19:22 53.23022 2.30426 39011 ft 436 kts 102°
2026-04-20 19:22 53.21778 2.40331 39011 ft 436 kts 102°
2026-04-20 19:23 53.20527 2.50231 39011 ft 436 kts 102°
2026-04-20 19:23 53.19272 2.60112 39011 ft 436 kts 102°
2026-04-20 19:24 53.18005 2.70003 39011 ft 436 kts 102°
2026-04-20 19:24 53.16730 2.79889 39011 ft 436 kts 102°
2026-04-20 19:25 53.15449 2.89757 39011 ft 436 kts 102°
2026-04-20 19:25 53.14166 2.99570 39011 ft 436 kts 102°
2026-04-20 19:26 53.12861 3.09493 39007 ft 436 kts 102°
2026-04-20 19:26 53.11563 3.19287 39011 ft 436 kts 102°
2026-04-20 19:27 53.10139 3.29093 39004 ft 436 kts 109°
2026-04-20 19:27 53.07524 3.38168 39005 ft 436 kts 118°
2026-04-20 19:28 53.06102 3.42509 39001 ft 436 kts 118°
2026-04-20 19:28 53.03205 3.51349 39009 ft 436 kts 119°
2026-04-20 19:29 53.00289 3.60175 39006 ft 436 kts 118°
2026-04-20 19:29 52.97374 3.68991 39010 ft 436 kts 119°
2026-04-20 19:30 52.94446 3.77796 39011 ft 436 kts 119°
2026-04-20 19:30 52.91513 3.86589 39011 ft 436 kts 119°
2026-04-20 19:31 52.88575 3.95367 39005 ft 436 kts 119°
2026-04-20 19:31 52.85631 4.04134 39002 ft 436 kts 119°
2026-04-20 19:32 52.82680 4.12891 39009 ft 436 kts 119°
2026-04-20 19:32 52.79720 4.21639 39011 ft 436 kts 119°
2026-04-20 19:33 52.76755 4.30368 39011 ft 436 kts 119°
2026-04-20 19:33 52.73613 4.38915 39009 ft 436 kts 125°
2026-04-20 19:34 52.70173 4.47147 39010 ft 436 kts 124°
2026-04-20 19:34 52.66726 4.55368 40278 ft 436 kts 124°
2026-04-20 19:34 52.64983 4.59491 40150 ft 441 kts 124°
2026-04-20 19:35 52.63474 4.63077 40044 ft 444 kts 124°
2026-04-20 19:35 52.61707 4.67273 39926 ft 447 kts 124°
2026-04-20 19:35 52.59926 4.71483 39812 ft 450 kts 124°
2026-04-20 19:35 52.58130 4.75718 39703 ft 452 kts 124°
2026-04-20 19:36 52.56325 4.79970 39595 ft 454 kts 124°
2026-04-20 19:36 52.54626 4.84354 39481 ft 456 kts 117°
2026-04-20 19:36 52.53295 4.89077 39374 ft 456 kts 110°
2026-04-20 19:36 52.52274 4.94019 39272 ft 457 kts 107°
2026-04-20 19:37 52.51264 4.98956 39263 ft 456 kts 107°
2026-04-20 19:37 52.49244 5.08783 39259 ft 453 kts 108°
2026-04-20 19:38 52.47235 5.18547 39264 ft 451 kts 108°
2026-04-20 19:38 52.45220 5.28265 39267 ft 449 kts 108°
2026-04-20 19:39 52.43209 5.37934 39273 ft 448 kts 108°
2026-04-20 19:39 52.41195 5.47568 39275 ft 447 kts 108°
2026-04-20 19:40 52.39177 5.57177 39272 ft 446 kts 108°
2026-04-20 19:40 52.37150 5.66770 39270 ft 445 kts 108°
2026-04-20 19:41 52.35882 5.72759 39266 ft 445 kts 108°
2026-04-20 19:41 52.33848 5.82317 39257 ft 444 kts 108°
2026-04-20 19:42 52.31810 5.91852 39247 ft 444 kts 108°
2026-04-20 19:42 52.29765 6.01377 39248 ft 444 kts 108°
2026-04-20 19:43 52.27728 6.10817 39249 ft 444 kts 108°
2026-04-20 19:43 52.25670 6.20309 39244 ft 444 kts 108°
2026-04-20 19:44 52.23605 6.29793 39245 ft 443 kts 108°
2026-04-20 19:44 52.21537 6.39270 39234 ft 444 kts 108°
2026-04-20 19:45 52.19458 6.48738 39235 ft 444 kts 109°
2026-04-20 19:45 52.17319 6.58240 39226 ft 444 kts 112°
2026-04-20 19:46 52.14124 6.66757 39224 ft 445 kts 126°
2026-04-20 19:46 52.10436 6.74850 39222 ft 445 kts 126°
2026-04-20 19:47 52.06743 6.82935 39222 ft 445 kts 126°
2026-04-20 19:47 52.03040 6.91004 39217 ft 445 kts 126°
2026-04-20 19:48 51.99334 6.99065 39215 ft 445 kts 126°
2026-04-20 19:48 51.95624 7.07106 39212 ft 446 kts 126°
2026-04-20 19:49 51.91912 7.15129 39210 ft 446 kts 126°
2026-04-20 19:49 51.88176 7.23171 39213 ft 446 kts 126°
2026-04-20 19:50 51.84443 7.31186 39215 ft 446 kts 126°
2026-04-20 19:50 51.80704 7.39191 39216 ft 446 kts 127°
2026-04-20 19:51 51.76958 7.47186 39218 ft 446 kts 127°
2026-04-20 19:51 51.73205 7.55168 39217 ft 446 kts 127°
2026-04-20 19:52 51.69442 7.63146 39217 ft 447 kts 127°
2026-04-20 19:52 51.65677 7.71107 39222 ft 447 kts 127°
2026-04-20 19:53 51.61905 7.79058 39218 ft 447 kts 127°
2026-04-20 19:53 51.58125 7.86998 39217 ft 447 kts 127°
2026-04-20 19:54 51.54336 7.94932 39216 ft 447 kts 127°
2026-04-20 19:54 51.50569 8.02800 39213 ft 448 kts 127°
2026-04-20 19:55 51.46768 8.10713 39208 ft 448 kts 127°
2026-04-20 19:55 51.42962 8.18613 39203 ft 448 kts 127°
2026-04-20 19:56 51.39765 8.25228 39202 ft 448 kts 127°
2026-04-20 19:56 51.35323 8.34394 39199 ft 448 kts 127°
2026-04-20 19:57 51.31495 8.42265 39197 ft 449 kts 128°
2026-04-20 19:57 51.27656 8.50135 39188 ft 449 kts 128°
2026-04-20 19:58 51.23813 8.57990 39188 ft 449 kts 128°
2026-04-20 19:58 51.19963 8.65836 39186 ft 449 kts 128°
2026-04-20 19:59 51.16107 8.73671 39182 ft 449 kts 128°
2026-04-20 19:59 51.12242 8.81498 39179 ft 449 kts 128°
2026-04-20 20:00 51.08371 8.89316 39028 ft 454 kts 128°
2026-04-20 20:00 51.06416 8.93253 38536 ft 451 kts 128°
2026-04-20 20:00 51.04483 8.97144 38003 ft 447 kts 128°
2026-04-20 20:00 51.02560 9.01005 37478 ft 443 kts 128°
2026-04-20 20:01 51.00655 9.04828 36993 ft 439 kts 128°
2026-04-20 20:01 50.98795 9.08550 37087 ft 422 kts 128°
2026-04-20 20:01 50.96982 9.12176 37142 ft 419 kts 128°
2026-04-20 20:02 50.93350 9.19427 37164 ft 420 kts 128°
2026-04-20 20:02 50.89705 9.26682 37167 ft 421 kts 128°
2026-04-20 20:03 50.86034 9.33967 36752 ft 426 kts 128°
2026-04-20 20:03 50.84196 9.37607 36233 ft 420 kts 128°
2026-04-20 20:03 50.82380 9.41195 35724 ft 416 kts 129°
2026-04-20 20:03 50.80581 9.44751 35223 ft 412 kts 129°
2026-04-20 20:04 50.78797 9.48269 34732 ft 408 kts 129°
2026-04-20 20:04 50.77027 9.51757 34251 ft 405 kts 129°
2026-04-20 20:04 50.75860 9.54049 33891 ft 403 kts 129°
2026-04-20 20:04 50.74115 9.57481 33317 ft 400 kts 129°
2026-04-20 20:05 50.72379 9.60886 32758 ft 396 kts 129°
2026-04-20 20:05 50.70632 9.64242 31979 ft 394 kts 129°
2026-04-20 20:05 50.68887 9.67535 31229 ft 389 kts 129°
2026-04-20 20:05 50.67170 9.70794 30498 ft 383 kts 128°
2026-04-20 20:06 50.65493 9.74009 29685 ft 377 kts 128°
2026-04-20 20:06 50.63832 9.77177 28832 ft 372 kts 128°
2026-04-20 20:06 50.62192 9.80287 28003 ft 367 kts 128°
2026-04-20 20:06 50.60573 9.83353 27195 ft 362 kts 128°
2026-04-20 20:07 50.58977 9.86381 26415 ft 357 kts 128°
2026-04-20 20:07 50.57402 9.89363 25657 ft 352 kts 128°
2026-04-20 20:07 50.55847 9.92304 24910 ft 347 kts 128°
2026-04-20 20:07 50.54308 9.95207 24180 ft 343 kts 128°
2026-04-20 20:08 50.52688 9.97929 23424 ft 339 kts 132°
2026-04-20 20:08 50.51115 10.00661 22591 ft 336 kts 130°
2026-04-20 20:08 50.49562 10.03384 21777 ft 333 kts 130°
2026-04-20 20:08 50.48001 10.06050 20997 ft 331 kts 131°
2026-04-20 20:09 50.46435 10.08691 20218 ft 329 kts 131°
2026-04-20 20:09 50.44885 10.11327 19469 ft 328 kts 131°
2026-04-20 20:09 50.43336 10.13948 18739 ft 327 kts 133°
2026-04-20 20:09 50.41712 10.16441 17955 ft 326 kts 132°
2026-04-20 20:10 50.40173 10.19047 17213 ft 324 kts 131°
2026-04-20 20:10 50.38671 10.21530 17148 ft 303 kts 132°
2026-04-20 20:10 50.37127 10.23668 17134 ft 301 kts 145°
2026-04-20 20:10 50.35294 10.25416 17137 ft 316 kts 147°
2026-04-20 20:11 50.33377 10.27242 17143 ft 328 kts 147°
2026-04-20 20:11 50.31407 10.29153 17150 ft 338 kts 146°
2026-04-20 20:11 50.29386 10.31125 17156 ft 346 kts 147°
2026-04-20 20:11 50.27316 10.33135 16966 ft 357 kts 147°
2026-04-20 20:12 50.25226 10.35149 16445 ft 348 kts 147°
2026-04-20 20:12 50.23142 10.36998 15927 ft 341 kts 154°
2026-04-20 20:12 50.20945 10.38303 15417 ft 335 kts 160°
2026-04-20 20:13 50.16627 10.40782 14426 ft 327 kts 156°
2026-04-20 20:13 50.14534 10.42133 13935 ft 324 kts 156°
2026-04-20 20:13 50.12442 10.43438 13393 ft 323 kts 157°
2026-04-20 20:13 50.10359 10.44710 12859 ft 321 kts 158°
2026-04-20 20:14 50.08278 10.45979 12332 ft 320 kts 157°
2026-04-20 20:14 50.06213 10.47257 11813 ft 319 kts 158°
2026-04-20 20:14 50.04150 10.48527 11303 ft 318 kts 157°
2026-04-20 20:14 50.02092 10.49790 10799 ft 318 kts 158°
2026-04-20 20:15 50.00038 10.51050 10307 ft 317 kts 158°
2026-04-20 20:15 49.97986 10.52306 9792 ft 317 kts 158°
2026-04-20 20:15 49.96110 10.54021 9236 ft 314 kts 135°
2026-04-20 20:15 49.94693 10.56547 8705 ft 307 kts 128°
2026-04-20 20:16 49.93380 10.59129 8246 ft 301 kts 126°
2026-04-20 20:16 49.92082 10.61586 8148 ft 288 kts 130°
2026-04-20 20:16 49.90741 10.63844 8143 ft 282 kts 131°
2026-04-20 20:16 49.89428 10.66077 8129 ft 278 kts 131°
2026-04-20 20:17 49.88144 10.68302 8134 ft 275 kts 130°
2026-04-20 20:17 49.86870 10.70531 8130 ft 278 kts 131°
2026-04-20 20:17 49.85577 10.72767 8131 ft 280 kts 130°
2026-04-20 20:17 49.84273 10.75019 8126 ft 282 kts 131°
2026-04-20 20:18 49.82963 10.77285 8132 ft 283 kts 130°
2026-04-20 20:18 49.81646 10.79553 8132 ft 284 kts 131°
2026-04-20 20:18 49.80328 10.81834 8129 ft 285 kts 131°
2026-04-20 20:18 49.79019 10.84082 8131 ft 285 kts 131°
2026-04-20 20:19 49.77693 10.86375 8128 ft 286 kts 131°
2026-04-20 20:19 49.76360 10.88658 8133 ft 286 kts 131°
2026-04-20 20:19 49.75015 10.90979 8129 ft 286 kts 131°
2026-04-20 20:19 49.73680 10.93263 8130 ft 285 kts 131°
2026-04-20 20:20 49.72369 10.95521 8124 ft 280 kts 131°
2026-04-20 20:20 49.71073 10.97737 8126 ft 276 kts 131°
2026-04-20 20:20 49.69795 10.99930 8124 ft 273 kts 131°
2026-04-20 20:20 49.68542 11.02072 8124 ft 262 kts 131°
2026-04-20 20:21 49.67369 11.04075 8123 ft 246 kts 131°
2026-04-20 20:21 49.66257 11.05980 8121 ft 232 kts 131°
2026-04-20 20:21 49.65185 11.07806 8117 ft 222 kts 131°
2026-04-20 20:21 49.64164 11.09551 7867 ft 225 kts 131°
2026-04-20 20:22 49.63100 11.11369 7505 ft 231 kts 131°
2026-04-20 20:22 49.62010 11.13222 7149 ft 235 kts 131°
2026-04-20 20:22 49.60907 11.15105 6798 ft 237 kts 132°
2026-04-20 20:22 49.59800 11.16983 6450 ft 236 kts 131°
2026-04-20 20:23 49.58894 11.19053 6106 ft 231 kts 104°
2026-04-20 20:23 49.58629 11.21417 6017 ft 218 kts 96°
2026-04-20 20:23 49.58389 11.23674 5992 ft 212 kts 95°
2026-04-20 20:23 49.58172 11.25950 5883 ft 219 kts 95°
2026-04-20 20:24 49.57940 11.28346 5626 ft 233 kts 96°
2026-04-20 20:24 49.57684 11.30862 5441 ft 240 kts 96°
2026-04-20 20:24 49.57429 11.33393 5416 ft 238 kts 96°
2026-04-20 20:24 49.57172 11.35923 5261 ft 243 kts 96°
2026-04-20 20:25 49.56913 11.38529 5083 ft 247 kts 96°
2026-04-20 20:25 49.56645 11.41128 5034 ft 245 kts 96°
2026-04-20 20:25 49.56385 11.43709 5008 ft 242 kts 96°
2026-04-20 20:25 49.56128 11.46246 4994 ft 238 kts 95°
2026-04-20 20:26 49.55870 11.48757 4994 ft 236 kts 95°
2026-04-20 20:26 49.55616 11.51248 4990 ft 235 kts 96°
2026-04-20 20:26 49.54912 11.53503 4889 ft 243 kts 134°
2026-04-20 20:26 49.53396 11.54677 4526 ft 251 kts 173°
2026-04-20 20:27 49.51664 11.54523 4156 ft 249 kts 192°
2026-04-20 20:27 49.50010 11.54084 4023 ft 231 kts 193°
2026-04-20 20:27 49.48549 11.53411 3994 ft 204 kts 216°
2026-04-20 20:27 49.47786 11.51767 3978 ft 182 kts 253°
2026-04-20 20:28 49.47315 11.50010 3992 ft 176 kts 253°
2026-04-20 20:28 49.46880 11.48273 3988 ft 173 kts 257°
2026-04-20 20:28 49.46538 11.46515 3989 ft 172 kts 259°
2026-04-20 20:28 49.46207 11.44796 3982 ft 160 kts 259°
2026-04-20 20:29 49.46147 11.43205 3977 ft 143 kts 279°
2026-04-20 20:29 49.46217 11.41724 3977 ft 137 kts 281°
2026-04-20 20:29 49.46334 11.40260 3980 ft 139 kts 284°
2026-04-20 20:29 49.46481 11.38789 3982 ft 140 kts 284°
2026-04-20 20:30 49.46637 11.37309 3983 ft 140 kts 284°
2026-04-20 20:30 49.46795 11.35820 3984 ft 142 kts 284°
2026-04-20 20:30 49.46950 11.34313 3979 ft 143 kts 284°
2026-04-20 20:30 49.47152 11.32832 3918 ft 145 kts 289°
2026-04-20 20:31 49.47396 11.31345 3885 ft 142 kts 289°
2026-04-20 20:31 49.47589 11.29911 3817 ft 130 kts 286°
2026-04-20 20:31 49.47733 11.28564 3689 ft 125 kts 285°
2026-04-20 20:31 49.47862 11.27251 3529 ft 124 kts 284°
2026-04-20 20:32 49.47964 11.26018 3418 ft 107 kts 284°
2026-04-20 20:32 49.48059 11.24889 3273 ft 105 kts 286°
2026-04-20 20:32 49.48183 11.23794 3114 ft 103 kts 288°
2026-04-20 20:32 49.48317 11.22734 2903 ft 99 kts 288°
2026-04-20 20:33 49.48447 11.21699 2675 ft 98 kts 289°
2026-04-20 20:33 49.48564 11.20649 2474 ft 102 kts 284°
2026-04-20 20:33 49.48686 11.19416 2518 ft 128 kts 285°
2026-04-20 20:33 49.48813 11.18162 2495 ft 107 kts 285°
2026-04-20 20:34 49.48921 11.17085 2313 ft 99 kts 285°
2026-04-20 20:34 49.49029 11.16052 2100 ft 101 kts 284°
2026-04-20 20:34 49.49156 11.14934 1930 ft 109 kts 283°
2026-04-20 20:34 49.49292 11.13763 1774 ft 113 kts 283°
2026-04-20 20:35 49.49404 11.12595 1576 ft 109 kts 281°
2026-04-20 20:35 49.49511 11.11447 1394 ft 108 kts 282°
2026-04-20 20:35 49.49620 11.10300 1250 ft 109 kts 282°
2026-04-20 20:35 49.49733 11.09137 1075 ft 110 kts 282°
2026-04-20 20:36 49.49850 11.08044 1039 ft 86 kts 278°
2026-04-20 20:36 49.49916 11.07344 1036 ft 54 kts 278°
2026-04-20 20:36 49.49903 11.07016 1030 ft 21 kts 192°
2026-04-20 20:36 49.49838 11.07039 1029 ft 0 kts 158°
2026-04-20 20:39 49.49837 11.07040 1029 ft 2 kts 158°
2026-04-20 20:39 49.49768 11.07085 1029 ft 18 kts 144°
2026-04-20 20:40 49.49705 11.07232 1030 ft 16 kts 170°
2026-04-20 20:40 49.49591 11.07209 1026 ft 18 kts 189°
2026-04-20 20:40 49.49508 11.07169 1023 ft 12 kts 252°
2026-04-20 20:40 49.49518 11.07044 1023 ft 13 kts 278°
2026-04-20 20:41 49.49556 11.06992 1023 ft 0 kts